Weather History for New River MCAS, NC

Change the Weather History Date:

Monday, October 8, 2012

  Actual Average Record
Temperature  
Mean Temperature 60 °F -  
Max Temperature 66 °F 74 °F 91 °F (2007)
Min Temperature 53 °F 54 °F 41 °F (2001)
Degree Days  
Heating Degree Days 6    
Growing Degree Days 10 (Base 50)    
Moisture  
Dew Point 54 °F    
Average Humidity 87    
Maximum Humidity 100    
Minimum Humidity 75    
Precipitation  
Precipitation 0.06 in - - ()
Sea Level Pressure  
Sea Level Pressure 30.11 in    
Wind  
Wind Speed 10 mph (NNE)    
Max Wind Speed 13 mph    
Max Gust Speed 21 mph    
Visibility 8 miles    
Events Rain    
Averages and records for this station are not official NWS values.
T = Trace of Precipitation, MM = Missing Value Source: NWS Daily Summary

Daily Weather History Graph

Daily Weather History Graph

Search for Another Location

Airport:

Trip Planner

Search our weather history database for the weather conditions in past years. The results will help you decide how hot, cold, wet, or windy it might be!

Date:

Astronomy

Oct. 08, 2012 Rise Set
Actual Time 7:10 AM EDT 6:43 PM EDT
Civil Twilight 6:44 AM EDT 7:08 PM EDT
Nautical Twilight 6:15 AM EDT 7:37 PM EDT
Astronomical Twilight 5:46 AM EDT 8:07 PM EDT
Moon 12:03 AM EDT (10/8) 2:16 PM EDT (10/8)
Length of Visible Light 12h 23m
Length of Day
11h 33m
Waning Gibbous, 46% of the Moon is Illuminated
Oct 8
Waning Gibbous
Oct 15
New
Oct 21
First Quarter
Oct 29
Full
Nov 6
Last Quarter

Hourly Weather History & Observations

Time (EDT) Temp. Dew Point Humidity Pressure Visibility Wind Dir Wind Speed Gust Speed Precip Events Conditions
12:56 AM 57.0 °F 52.0 °F 83% 30.12 in 10.0 mi North 12.7 mph - N/A   Overcast
1:56 AM 55.9 °F 52.0 °F 87% 30.12 in 10.0 mi NNE 8.1 mph - N/A   Overcast
2:56 AM 55.9 °F 51.1 °F 84% 30.12 in 10.0 mi North 11.5 mph - N/A   Overcast
3:56 AM 55.9 °F 51.1 °F 84% 30.12 in 10.0 mi North 9.2 mph - N/A   Overcast
4:11 AM 55.4 °F 50.0 °F 82% 30.11 in 10.0 mi NNE 9.2 mph - N/A   Overcast
4:56 AM 55.0 °F 50.0 °F 83% 30.13 in 10.0 mi NNE 10.4 mph - N/A   Overcast
5:05 AM 55.4 °F 50.0 °F 82% 30.12 in 10.0 mi NNE 11.5 mph - N/A   Overcast
5:18 AM 55.4 °F 50.0 °F 82% 30.12 in 10.0 mi NNE 9.2 mph - N/A   Overcast
5:56 AM 55.0 °F 50.0 °F 83% 30.14 in 10.0 mi NNE 10.4 mph - N/A   Overcast
6:56 AM 55.0 °F 51.1 °F 86% 30.15 in 10.0 mi NNE 8.1 mph - N/A   Overcast
7:56 AM 55.0 °F 51.1 °F 86% 30.17 in 10.0 mi NNE 9.2 mph - N/A   Overcast
8:56 AM 55.9 °F 52.0 °F 87% 30.18 in 7.0 mi NNE 8.1 mph - N/A   Overcast
9:22 AM 55.4 °F 53.6 °F 94% 30.18 in 2.5 mi North 10.4 mph - N/A   Overcast
9:37 AM 55.4 °F 53.6 °F 94% 30.18 in 3.0 mi NNE 8.1 mph - N/A   Overcast
9:56 AM 55.9 °F 54.0 °F 93% 30.18 in 4.0 mi NNE 9.2 mph - N/A   Overcast
10:49 AM 57.2 °F 53.6 °F 88% 30.16 in 10.0 mi NNE 6.9 mph - N/A   Overcast
10:56 AM 57.9 °F 55.0 °F 90% 30.17 in 10.0 mi NNE 8.1 mph - N/A   Overcast
11:56 AM 61.0 °F 55.9 °F 83% 30.15 in 10.0 mi NE 9.2 mph - N/A   Overcast
12:56 PM 63.0 °F 57.0 °F 81% 30.12 in 8.0 mi NNE 9.2 mph - 0.00 in Rain Light Rain
1:33 PM 64.4 °F 57.2 °F 77% 30.09 in 10.0 mi ENE 8.1 mph - 0.00 in   Overcast
1:56 PM 66.0 °F 57.9 °F 75% 30.09 in 10.0 mi NE 8.1 mph - 0.00 in   Overcast
2:56 PM 66.0 °F 59.0 °F 78% 30.07 in 10.0 mi North 4.6 mph - N/A   Overcast
3:56 PM 66.9 °F 59.0 °F 76% 30.06 in 10.0 mi NNE 8.1 mph - N/A   Overcast
4:56 PM 64.9 °F 59.0 °F 81% 30.06 in 10.0 mi North 8.1 mph - N/A   Overcast
5:44 PM 60.8 °F 55.4 °F 82% 30.07 in 10.0 mi NNW 12.7 mph - N/A   Overcast
5:56 PM 60.1 °F 55.9 °F 86% 30.07 in 10.0 mi North 12.7 mph - N/A   Overcast
6:42 PM 57.2 °F 55.4 °F 94% 30.06 in 5.0 mi North 12.7 mph 19.6 mph 0.01 in Rain Light Rain
6:56 PM 57.0 °F 55.0 °F 93% 30.06 in 6.0 mi North 10.4 mph - 0.01 in   Overcast
7:30 PM 55.4 °F 53.6 °F 94% 30.08 in 10.0 mi NNW 11.5 mph - 0.00 in Rain Light Rain
7:56 PM 55.0 °F 52.0 °F 89% 30.10 in 10.0 mi North 11.5 mph 20.7 mph 0.00 in Rain Light Rain
8:26 PM 55.4 °F 51.8 °F 88% 30.10 in 1.8 mi North 10.4 mph - 0.14 in Rain Heavy Rain
8:34 PM 53.6 °F 51.8 °F 94% 30.10 in 0.8 mi North 10.4 mph - 0.42 in Rain Heavy Rain
8:43 PM 53.6 °F 53.6 °F 100% 30.09 in 1.2 mi Variable 3.5 mph - 0.57 in Rain Heavy Rain
8:48 PM 53.6 °F 53.6 °F 100% 30.08 in 3.0 mi NE 5.8 mph - 0.58 in Rain Rain
9:19 PM 55.4 °F 53.6 °F 94% 30.04 in 7.0 mi ENE 12.7 mph - 0.04 in Rain Light Rain
9:32 PM 55.4 °F 53.6 °F 94% 30.08 in 10.0 mi NNW 5.8 mph - 0.05 in Rain Light Rain
9:56 PM 57.0 °F 55.0 °F 93% 30.09 in 10.0 mi North 10.4 mph - 0.05 in   Overcast
10:56 PM 57.0 °F 54.0 °F 89% 30.09 in 10.0 mi NNW 8.1 mph - N/A   Overcast
11:56 PM 57.0 °F 54.0 °F 89% 30.08 in 10.0 mi North 9.2 mph - N/A   Overcast